User: anonymous   Login
Location: Caltech
(34.1382°N, 118.1253°W)
Time: 07:13:35
(UTC-07:00)
Language:

CZ-4B DEB - Orbit

View from above orbital plane
View from above orbital plane
View from above satellite
View from above satellite

Ground track
Ground track

The orbit data is extracted from the following two-line orbital elements,

1 27433U 02024D   17178.89574990 +.00000030 +00000-0 +40558-4 0  9991
2 27433 098.9678 152.0224 0015320 025.0192 335.1719 14.12182687778690
Epoch (UTC): 27 June 2017 21:29:52
Eccentricity: 0.0015320
inclination: 98.9678°
perigee height: 841 km
apogee height: 863 km
right ascension of ascending node: 152.0224°
argument of perigee: 25.0192°
revolutions per day: 14.12182687
mean anomaly at epoch: 335.1719°
orbit number at epoch: 77869

The dashed part of the orbit path shows where the satellite is in the earth's shadow,  

DLR